Regional Weather Roundup
Issued by NWS

Home | Current Version | Previous Version | Graphics & Text | Print | Product List | Glossary Off
Versions: 1 2 3 4 5 6 7 8 9 10 11 12 13 14 15 16 17 18 19 20 21 22 23 24 25 26 27 28 29 30 31 32 33 34 35 36 37 38 39 40 41 42 43 44 45 46 47 48 49 50

157
ASUS43 KMPX 260201
RWRMN
WEATHER ROUNDUP FOR MINNESOTA
NATIONAL WEATHER SERVICE TWIN CITIES/CHANHASSEN MN
900 PM CDT MON SEP 25 2017


NOTE: "FAIR" INDICATES FEW OR NO CLOUDS BELOW 12,000 FEET WITH NO
SIGNIFICANT WEATHER AND/OR OBSTRUCTIONS TO VISIBILITY. N/A MEANS
CURRENT SKY AND/OR WEATHER CONDITIONS ARE NOT AVAILABLE.

MNZ060>063-068>070-260300-
   Twin Cities Metro

CITY           SKY/WX    TMP DP  RH WIND       PRES   REMARKS
TWIN CITIES    LGT RAIN  59  58  96 N6        29.99R
ST PAUL        LGT RAIN  60  57  89 N7        29.99R
CRYSTAL        LGT RAIN  58  53  84 N7        29.98R
BLAINE         LGT RAIN  59  57  94 N6        29.99R
LAKEVILLE      LGT RAIN  57  57 100 NW3       29.99R
EDEN PRAIRIE   LGT RAIN  59  56  89 N5        29.98R
SOUTH ST PAUL  CLOUDY    60  56  87 N6        29.98R
LAKE ELMO      CLOUDY    59  55  88 N7        29.99S
$$
MNZ001>005-007-008-013>017-022>024-027-028-260300-
   Northwest Minnesota

CITY           SKY/WX    TMP DP  RH WIND       PRES   REMARKS
BEMIDJI        CLOUDY    51  48  90 NE7       30.07S
HALLOCK          N/A     52  48  87 N5        30.12F
ROSEAU           N/A     52  46  82 N5        30.12F
WARROAD        CLOUDY    50  46  87 N7        30.12F
CROOKSTON      CLOUDY    52  48  87 N9        30.11R
FOSSTON        CLOUDY    50  48  93 N7        30.08F
DETROIT LAKES  CLOUDY    52  48  87 N5        30.07S
MOORHEAD       DRIZZLE   52  48  87 N8        30.08F
PARK RAPIDS    CLOUDY    54  50  86 N8        30.05F
MAHNOMEN       CLOUDY    51  47  87 N6        30.08S
$$
MNZ006-009>011-018-025>026-260300-
   North Central Minnesota

CITY           SKY/WX    TMP DP  RH WIND       PRES   REMARKS
BAUDETTE       CLOUDY    51  48  89 N6        30.10F
FLAG ISLAND    MOCLDY    52  48  87 NE7       30.11F
INTL FALLS     CLOUDY    53  49  86 N6        30.08F
WASKISH        CLOUDY    52  48  87 N3        30.09S
BIG FORK       CLOUDY    54  48  82 N3        30.07S
LONGVILLE      CLOUDY    54  52  94 N5        30.04S
GRAND RAPIDS   CLOUDY    54  50  86 N7        30.06F
CRANE LAKE     CLOUDY    52  52 100 N3        30.08F
ORR            CLOUDY    52  48  87 CALM      30.04F
WALKER         CLOUDY    52  50  94 N6        30.06R
$$
MNZ012-019>021-037-260300-
   Northeast Minnesota

CITY           SKY/WX    TMP DP  RH WIND       PRES   REMARKS
DULUTH         CLOUDY    56  55  97 N10       30.01F
ELY            CLOUDY    54  52  94 CALM      30.05R
HIBBING        CLOUDY    53  50  89 N9        30.05R
EVELETH        CLOUDY    54  53  97 N5        30.05S FOG
GRAND MARAIS     N/A     60  58  92 E13       30.01S
$$
MNZ029>031-032-039>041-046>048-054>057-064-260300-
   West Central Minnesota

CITY           SKY/WX    TMP DP  RH WIND       PRES   REMARKS
FERGUS FALLS   CLOUDY    52  50  93 NE8       30.05F
WHEATON        RAIN      50  46  87 N7        30.07F
ALEXANDRIA     CLOUDY    55  51  86 NE7       30.05R
ELBOW LAKE     DRIZZLE   53  51  94 N8        30.05S
WADENA         CLOUDY    54  48  82 N7        30.05S
GLENWOOD       DRIZZLE   54  52  94 N6        30.03F
APPLETON       DRIZZLE   54  52  94 N8        30.03F
BENSON         LGT RAIN  55  52  88 NE5       30.04S
ORTONVILLE     CLOUDY    52  48  87 N8        30.04F
MADISON        RAIN      55  55 100 N10       30.03F
WILLMAR        RAIN      57  55  94 N5        30.04R
$$
MNZ033>034-036-042>043-049>051-058-059-260300-
   Central Minnesota

CITY           SKY/WX    TMP DP  RH WIND       PRES   REMARKS
ST CLOUD       LGT RAIN  55  55 100 N5        30.01R
SAUK CENTRE    DRIZZLE   55  52  89 N3        30.04R
PAYNESVILLE    RAIN      55  54  97 N5        30.03F
AITKIN         CLOUDY    54  52  94 N5        30.02F
PINE RIVER     CLOUDY    52  48  87 N6        30.08R
BRAINERD       LGT RAIN  55  52  89 N9        30.03F
STAPLES        LGT RAIN  54  50  87 N7        30.04S
LITTLE FALLS   DRIZZLE   54  48  82 CALM      30.02
LITCHFIELD     DRIZZLE   57  57 100 N5        30.02S
BUFFALO        DRIZZLE   56  53  89 N6        30.01S
MAPLE LAKE     RAIN      56  55  96 N3        30.02S
HUTCHINSON     RAIN      57  56  95 N5        30.02R
$$
MNZ037-044-045-052-053-260300-
   East Central Minnesota

CITY           SKY/WX    TMP DP  RH WIND       PRES   REMARKS
PRINCETON      LGT RAIN  57  55  94 N3        30.01R
MORA           DRIZZLE   54  52  94 CALM      30.02S
RUSH CITY      LGT RAIN  56  54  92 N5        30.00F
MOOSE LAKE     DRIZZLE   54  52  94 N5        30.00S
HINCKLEY       LGT RAIN  55  54  94 N5        30.00F
CLOQUET        CLOUDY    55  52  88 N5        30.01F
MCGREGOR       CLOUDY    55  52  88 N7        30.03S
$$
MNZ071>073-080-081-089-090-097-098-260300-
   Southwest Minnesota

CITY           SKY/WX    TMP DP  RH WIND       PRES   REMARKS
MONTEVIDEO     LGT RAIN  54  52  94 NE6       30.03S
GRANITE FALLS  DRIZZLE   56  54  94 N8        30.03S
CANBY          HVY RAIN  52  51  95 N6        30.04F
MARSHALL       LGT RAIN  53  51  93 N8        30.03S
REDWOOD FALLS  CLOUDY    56  54  93 N7        30.01S
OLIVIA         DRIZZLE   54  52  94 N6        30.01S
PIPESTONE      DRIZZLE   52  50  93 NE7       30.01F
WORTHINGTON    CLOUDY    54  53  97 N7        30.01S
JACKSON        DRIZZLE   55  54  94 CALM      30.00S
TRACY          CLOUDY    55  55 100 N6        30.02S
SLAYTON        CLOUDY    53  46  76 N10       30.02S HAZE
$$
MNZ065>067-074>077-082>085-091>093-260300-
   South Central Minnesota

CITY           SKY/WX    TMP DP  RH WIND       PRES   REMARKS
MANKATO        LGT RAIN  58  57  97 NE6       29.99F
NEW ULM        RAIN      57  55  94 N5        29.99F
ST JAMES       DRIZZLE   57  55  94 N5        30.00F
FAIRMONT       LGT RAIN  57  56  96 N9        29.98F
FARIBAULT      LGT RAIN  61  57  88 N3        29.99R
OWATONNA       LGT RAIN  61  59  94 N3        29.98S
WASECA         CLOUDY    59  57  94 N7        29.98F
ALBERT LEA     LGT RAIN  64  63  94 NE5       29.96S
$$
MNZ078>079-086>088-094>096-260300-
   Southeast Minnesota

CITY           SKY/WX    TMP DP  RH WIND       PRES   REMARKS
ROCHESTER      RAIN      62  62 100 E6        29.98S FOG
RED WING       CLOUDY    63  57  82 CALM      29.96S
STANTON        CLOUDY    61  58  88 N3        29.97R
DODGE CENTER   LGT RAIN  61  59  94 CALM      29.97F
WINONA         LGT RAIN  70  68  94 CALM      29.96R
AUSTIN         CLOUDY    63  61  94 E3        29.96R FOG
PRESTON        LGT RAIN  64  61  93 N6        29.97F
$$
ABBREVIATIONS USED IN REMARKS
   TC - TEMPERATURES IN CELSIUS
  WCI - WIND CHILL INDEX
   HX - HEAT INDEX
  VSB - VISIBILITY
$$




USA.gov is the U.S. government's official web portal to all federal, state and local government web resources and services.